Regional Weather Roundup
Issued by NWS

Home | Current Version | Previous Version | Graphics & Text | Print | Product List | Glossary On
Versions: 1 2 3 4 5 6 7 8 9 10 11 12 13 14 15 16 17 18 19 20 21 22 23 24 25 26 27 28 29 30 31 32 33 34 35 36 37 38 39 40 41 42 43 44 45 46 47 48 49 50
000
ASUS44 KMEG 292010
RWRTN
TENNESSEE HOURLY STATE WEATHER ROUNDUP
NATIONAL WEATHER SERVICE MEMPHIS TN
300 PM CDT SAT AUG 29 2015

TNZ002-004-019-021-049-052-054-088>092-292100-
WEST TENNESSEE

CITY           SKY/WX    TMP DP  RH WIND       PRES   REMARKS
MEMPHIS INTL   MOSUNNY   91  62  37 SW9       30.02F HX  91
NWS MEMPHIS      N/A     93 N/A N/A MISG        N/A
JACKSON        MOSUNNY   90  62  39 SW8       30.04F HX  90
DYERSBURG      MOSUNNY  N/A N/A N/A MISG        N/A
UNION CITY     SUNNY     90  68  48 W9        30.02F HX  93
PARIS          SUNNY     90  63  40 SW7       30.05F HX  90
LEXINGTON      SUNNY     88  63  42 SE6       30.05F
$$

TNZ008-025-027-028-033-062-065-066-292100-
NORTH MIDDLE TENNESSEE

CITY           SKY/WX    TMP DP  RH WIND       PRES   REMARKS
NASHVILLE      LGT RAIN  78  68  71 S12       30.08F
CLARKSVILLE    LGT RAIN  89  62  40 SW7       30.05F
SMYRNA         LGT RAIN  75  73  93 SW6       30.10S
COOKEVILLE     MOSUNNY   88  72  58 S8        30.11S HX  94
CROSSVILLE     MOSUNNY   80  65  59 S7        30.17F
$$

TNZ061-075-076-078-094-096-097-292100-
SOUTH MIDDLE TENNESSEE

CITY           SKY/WX    TMP DP  RH WIND       PRES   REMARKS
FAYETTEVILLE     N/A     68  66  94 CALM      30.14R
TULLAHOMA      PTSUNNY   75  66  73 W16       30.14R
WINCHESTER     MOSUNNY   86  68  54 VRB7      30.10F
MCMINNVILLE    SUNNY     88  73  62 VRB5      30.11F HX  96
COLUMBIA       MOSUNNY   75  73  94 S9        30.08F
SHELBYVILLE    PTSUNNY   73  70  88 CALM      30.13S
$$

TNZ017-018-042-046-047-292100-
NORTHEAST TENNESSEE

CITY           SKY/WX    TMP DP  RH WIND       PRES   REMARKS
TRI CITIES     CLOUDY    81  62  52 N3        30.19F
ELIZABETHTON   CLEAR     81  55  41 CALM      30.18F
$$

TNZ012-013-036-069-073-074-292100-
CENTRAL EAST TENNESSEE

CITY           SKY/WX    TMP DP  RH WIND       PRES   REMARKS
KNOXVILLE      PTSUNNY   90  72  55 VRB3      30.12F HX  97
OAK RIDGE      MOSUNNY   87  63  44 VRB5      30.14F
GATLINBURG       N/A     84  55  37 SE6       30.13F
MORRISTOWN     CLEAR     82  63  51 CALM      30.16F
$$

TNZ083-085-099-292100-
SOUTHEAST TENNESSEE

CITY           SKY/WX    TMP DP  RH WIND       PRES   REMARKS
CHATTANOOGA    PTSUNNY   83  67  58 SE9       30.11F
$$

SKY/WX REPORTED AS FAIR MEANS FEW OR NO CLOUDS BELOW
12 THOUSAND FEET.



USA.gov is the U.S. government's official web portal to all federal, state and local government web resources and services.